SCP
0 0 0 0 0 0 0 0 0 0 0 0 0 0 0 0 0 0 0 0 0 0
0 0 0 0 0 0 0 0 0 0 0 0 0 0 0 0 0 0 0 0 0 0
0 0 0 0 0 0 0 0 0 0 0 0 0 0 0 0 0 0 0 0 0 0
0 0 0 0 0 0 0 0 0 0 0 0 0 0 0 0 0 0 0 0 0 0
0 0 0 0 0 0 0 0 0 0 0 0 0 0 0 0 0 0 0 0 0 0
0 0 0 0 0 0 0 0 0 0 0 0 0 0 0 0 0 0 0 0 0 0
0 0 0 0 0 0 0 0 0 0 0 0 0 0 0 0 0 0 0 0 0 0
0 0 0 0 0 0 0 0 0 0 0 0 0 0 0 0 0 0 0 0 0 0
0 0 0 0 0 0 0 0 0 0 0 0 0 0 0 0 0 0 0 0 0 0
0 0 0 0 0 0 0 0 0 0 0 0 0 0 0 0 0 0 0 0 0 0
0 0 0 0 0 0 0 0 0 0 0 0 0 0 0 0 0 0 0 0 0 0
0 0 0 0 0 0 0 0 0 0 0 0 0 0 0 0 0 0 0 0 0 0
0 0 0 0 0 0 0 0 0 0 0 0 0 0 0 0 0 0 0 0 0 0
0 0 0 0 0 0 0 0 0 0 0 0 0 0 0 0 0 0 0 0 0 0
Wind_Speed_500mb
53 40 36 35 36 40 41 39 40 39 35 35 33 39 35 37 36 35 35 34 34 35
34 33 31 29 29 35 36 36 36 35 34 36 35 33 32 34 35 34 33 32 33 34
33 34 33 31 36 38 37 41 39 35 34 30 31 30 32 32 33 33 33 33 33 34
35 31 31 33 32 37 39 37 35 30 28 27 29 32 33 32 32 32 33 34 37 39
31 30 28 28 28 27 28 26 24 25 26 28 28 28 30 29 29 32 36 38 41 42
25 20 18 17 16 16 17 19 21 23 24 25 27 27 27 30 34 37 36 39 40 42
16 14 12 11 11 13 16 19 20 22 24 26 26 26 30 37 35 39 45 42 44 51
13 10 11 13 16 17 18 20 22 24 26 30 33 33 33 36 41 46 46 48 45 45
9 10 11 13 14 17 20 22 24 25 26 27 31 34 36 39 44 42 45 46 46 50
7 10 13 15 18 20 22 24 26 28 30 32 37 42 45 38 38 42 44 47 55 57
13 16 20 23 26 27 29 29 30 33 36 39 40 41 39 32 37 43 47 49 50 53
15 19 23 29 30 27 30 34 33 34 33 36 39 38 37 33 41 47 49 51 54 43
26 28 27 27 29 33 37 37 39 39 40 41 41 43 47 46 42 47 54 58 50 47
19 21 23 27 33 36 38 40 37 40 41 43 47 51 53 50 38 47 51 49 49 45
Wind_Direction_500mb
218 229 206 204 200 207 212 214 217 221 228 234 242 250 256 260 263 265 265 270 274 275
205 189 192 189 190 202 203 211 217 226 237 242 250 252 256 258 261 267 274 278 279 279
176 183 189 191 192 200 204 211 216 227 234 244 251 259 265 272 278 281 284 286 287 287
172 181 187 191 202 205 202 208 220 231 249 256 262 267 274 280 282 283 284 286 286 286
164 172 179 182 181 193 206 216 232 240 250 259 269 279 283 281 284 288 289 287 287 288
170 179 189 187 195 214 230 240 252 264 275 281 286 287 287 292 296 296 297 299 297 296
176 186 197 210 228 246 258 268 279 283 283 286 286 284 286 292 295 301 303 298 295 295
178 194 220 236 251 264 274 278 277 276 276 276 278 283 287 292 295 295 291 291 298 296
201 222 244 266 281 283 281 281 283 285 285 283 281 281 282 284 288 286 285 287 290 288
269 293 307 309 307 304 300 298 297 294 289 283 284 286 288 289 286 282 281 284 285 293
312 317 316 311 307 303 301 300 299 296 293 292 292 291 291 294 284 281 283 287 289 291
299 299 297 299 302 305 306 306 304 306 303 297 297 299 297 295 288 290 291 295 300 296
292 293 296 303 310 312 311 311 309 306 303 301 301 299 296 294 293 291 293 298 296 294
298 305 308 308 310 312 308 305 304 303 301 301 302 299 296 292 290 289 296 294 295 299
Wind_Speed_850mb
53 40 36 35 36 40 41 39 40 39 35 35 33 39 35 37 36 35 35 34 34 35
34 33 31 29 29 35 36 36 36 35 34 36 35 33 32 34 35 34 33 32 33 34
33 34 33 31 36 38 37 41 39 35 34 30 31 30 32 32 33 33 33 33 33 34
35 31 31 33 32 37 39 37 35 30 28 27 29 32 33 32 32 32 33 34 37 39
31 30 28 28 28 27 28 26 24 25 26 28 28 28 30 29 29 32 36 38 41 42
25 20 18 17 16 16 17 19 21 23 24 25 27 27 27 30 34 37 36 39 40 42
16 14 12 11 11 13 16 19 20 22 24 26 26 26 30 37 35 39 45 42 44 51
13 10 11 13 16 17 18 20 22 24 26 30 33 33 33 36 41 46 46 48 45 45
9 10 11 13 14 17 20 22 24 25 26 27 31 34 36 39 44 42 45 46 46 50
7 10 13 15 18 20 22 24 26 28 30 32 37 42 45 38 38 42 44 47 55 57
13 16 20 23 26 27 29 29 30 33 36 39 40 41 39 32 37 43 47 49 50 53
15 19 23 29 30 27 30 34 33 34 33 36 39 38 37 33 41 47 49 51 54 43
26 28 27 27 29 33 37 37 39 39 40 41 41 43 47 46 42 47 54 58 50 47
19 21 23 27 33 36 38 40 37 40 41 43 47 51 53 50 38 47 51 49 49 45
Wind_Direction_850mb
218 229 206 204 200 207 212 214 217 221 228 234 242 250 256 260 263 265 265 270 274 275
205 189 192 189 190 202 203 211 217 226 237 242 250 252 256 258 261 267 274 278 279 279
176 183 189 191 192 200 204 211 216 227 234 244 251 259 265 272 278 281 284 286 287 287
172 181 187 191 202 205 202 208 220 231 249 256 262 267 274 280 282 283 284 286 286 286
164 172 179 182 181 193 206 216 232 240 250 259 269 279 283 281 284 288 289 287 287 288
170 179 189 187 195 214 230 240 252 264 275 281 286 287 287 292 296 296 297 299 297 296
176 186 197 210 228 246 258 268 279 283 283 286 286 284 286 292 295 301 303 298 295 295
178 194 220 236 251 264 274 278 277 276 276 276 278 283 287 292 295 295 291 291 298 296
201 222 244 266 281 283 281 281 283 285 285 283 281 281 282 284 288 286 285 287 290 288
269 293 307 309 307 304 300 298 297 294 289 283 284 286 288 289 286 282 281 284 285 293
312 317 316 311 307 303 301 300 299 296 293 292 292 291 291 294 284 281 283 287 289 291
299 299 297 299 302 305 306 306 304 306 303 297 297 299 297 295 288 290 291 295 300 296
292 293 296 303 310 312 311 311 309 306 303 301 301 299 296 294 293 291 293 298 296 294
298 305 308 308 310 312 308 305 304 303 301 301 302 299 296 292 290 289 296 294 295 299